Showing default

FLOCK 4G 26, 62633

Orbit data source: Space-Track

FLOCK 4G 26, 62633 is a payload satellite owned by Planet (US) in SSO that was launched on Tue, 14 Jan 2025 UTC via an FALCON 9 launch vehicle from the Air Force Western Test Range (AFWTR). Payload-class satellites include a variety of spacecraft equipped with specific instruments for various scientific and technological missions. These include communications satellites like Starlink; space stations such as the ISS; scientific satellites like the Hubble; Earth observation satellites from companies like Planet Labs, Umbra, and HawkEye 360; GPS; miniature CubeSats for education and research; and military/defense satellites.

Loading next visibility...
Identifier
62633, 2025-009AA
Orbit
SSO
Country
Flag of USUS
Related business
Manufacturer
Planet
Mission
Operational Commercial Imaging
Bus & Motor
CUBESAT 3U, Unknown motor
Mass
5.7 kg wet, 5.7 kg dry
Launch date (UTC)
2025-01-14 (1 year ago)
Launch vehicle
FALCON 9
Launch site
Air Force Western Test Range (AFWTR)
Object type
Payload
Rocket body
Debris
Shape & HBR
Box + 2 Pan, 1.0 m
Radar Cross Section
0.072 m², Medium (>0.1 m² and < 1m²)

Expand to show TLE details & history
Last TLE update: 14 hours ago

TLE from 14 hours ago
0 FLOCK 4G 26
1 62633U 25009AA  26034.52965041  .00011363  00000-0  43813-3 0  9999
2 62633  97.4120 117.3721 0004437  68.7402 291.4310 15.26470992 58505
Epoch: 2026-02-03T12:42Z
TLE epoch observation values (Epoch: 2026-02-03T12:42:41.795Z)
Latitude
-0.00003°
Longitude
152.98869°
Altitude
488.359 km
Speed
7.622 km/s
True Right ascension
07h 49m 29s
True Declination
0° 00' 00"
Sunlit
Object was in full shadow at epoch
Visualization orbit readout
Latitude
Unknown
Longitude
Unknown
Altitude
Unknown
Speed
Unknown
Apparent Right ascension
Unknown
Apparent Declination
Unknown
Sunlit
N/A
Visualization observer readout
Local Sidereal Time
04:12:00
Azimuth
Unknown
Elevation
Unknown
Doppler factor
Unknown
Orbital elements
Apogee altitude
486.374 km
Perigee altitude
480.285 km
Semi-major axis
6,861.466 km
Eccentricity
0.00044
Inclination
97.412°
RAAN
117.3721°
Arg. of periapsis
68.7402°
True anomaly
291.38366°
Mean anomaly
291.431°
Eccentric anomaly
291.40733°
Mean motion
3.81872 °/min
Orbital period
94.27 mins
BSTAR
0.00043813
Loading maneuver chart data...
Computing Atmospheric mass density...
Loading historical data...
Loading historical data...
Loading historical data...
Loading historical data...
Loading historical data...
Loading historical data...
Loading historical data...

Documentation

Showing up to 5 results
|